Location: Cedar Brake
(32.2526°N, 97.8459°W)
Time: 08:22:58
(UTC+00:00)

H-2A R/B - Pass Details

Date: 22 April 2026
Orbit: 729 x 829 km, 98.3° (Epoch: 15 May)

Event Time Altitude Azimuth Distance (km) Brightness Sun altitude
Rises 09:42:53 0° 8° (N) 3,261 5.9 -25.9°
Reaches altitude 10° 09:45:12 10° 5° (N) 2,345 5.0 -25.5°
Maximum altitude 09:50:19 63° 285° (WNW) 886 2.0 -24.6°
Enters shadow 09:50:31 63° 272° (W) 891 2.0 -24.6°
